Regional Weather Roundup
Issued by NWS

Home | Current Version | Previous Version | Text Only | Print | Product List | Glossary Off
Versions: 1 2 3 4 5 6 7 8 9 10 11 12 13 14 15 16 17 18 19 20 21 22 23 24 25 26 27 28 29 30 31 32 33 34 35 36 37 38 39 40 41 42 43 44 45 46 47 48 49 50

000
ASUS43 KMKX 200511
RWRWI

WISCONSIN REGIONAL WEATHER ROUNDUP
NATIONAL WEATHER SERVICE MILWAUKEE/SULLIVAN WI
1200 AM CDT FRI OCT 20 2017

NOTE: "FAIR" INDICATES FEW OR NO CLOUDS BELOW 12,000 FEET WITH NO
SIGNIFICANT WEATHER AND/OR OBSTRUCTIONS TO VISIBILITY.

WIZ001-002-006>008-014>016-023>028-200600-
NORTHWEST WISCONSIN

CITY           SKY/WX    TMP DP  RH WIND       PRES   REMARKS
SUPERIOR ARPT  FAIR      43  38  80 SW5       29.91S
ASHLAND        FAIR      54  36  50 S7        29.94F
HAYWARD        FAIR      57  36  45 S10       29.96S
SIREN          FAIR      60  36  40 S10       29.93S
CUMBERLAND     FAIR      50  34  53 S6        29.97S
RICE LAKE      FAIR      50  37  62 SE5       29.99S
CHETEK         FAIR      51  38  63 E10       29.99S
LADYSMITH      FAIR      53  36  53 SE5       30.01F
EAU CLAIRE     FAIR      53  36  52 S3        29.99S
MENOMONIE      FAIR      50  38  65 SE3       29.99S
NEW RICHMOND   FAIR      54  38  55 S8        29.95F
OSCEOLA        FAIR      57  39  50 SE6       29.96F
$$

WIZ003>005-009-010-017-018-200600-
NORTH CENTRAL WISCONSIN

CITY           SKY/WX    TMP DP  RH WIND       PRES   REMARKS
MANITOWISH WTR FAIR      47  35  62 S5        30.00S
ARBOR VITAE    FAIR      53  36  52 S7        30.01S
WOODRUFF       FAIR      53  36  52 S7        30.01S
RHINELANDER    FAIR      56  35  45 SW10G17   30.03S
EAGLE RIVER    FAIR      41  32  71 S3        30.02S
LAND O LAKES   FAIR      40  34  78 CALM      30.03S
PHILLIPS       FAIR      53  35  51 S5        30.01R
TOMAHAWK       FAIR      47  34  60 CALM      30.04R
MEDFORD        FAIR      47  35  61 S6        30.03S
MERRILL        FAIR      54  35  48 CALM      30.05S
$$

WIZ029-030-035-036-043>047-200600-
CENTRAL WISCONSIN

CITY           SKY/WX    TMP DP  RH WIND       PRES   REMARKS
WAUSAU         FAIR      53  35  50 SE5       30.04S
MOSINEE        FAIR      46  36  66 S9        30.06S
MARSHFIELD     FAIR      50  34  54 S7        30.03F
STEVENS POINT  FAIR      48  34  58 S6        30.06S
WAUPACA        FAIR      51  36  56 CALM      30.08S
WAUTOMA        FAIR      42  39  89 CALM      30.09S
WISC RAPIDS    FAIR      51  36  56 S5        30.06F
CAMP DOUGLAS   FAIR      54  35  48 SE3       30.04F
$$

WIZ011>013-019>022-031-037>040-048>050-200600-
NORTHEAST WISCONSIN

CITY           SKY/WX    TMP DP  RH WIND       PRES   REMARKS
ANTIGO         FAIR      46  35  65 S6        30.06S
SHAWANO        FAIR      49  37  61 CALM      30.07S
OCONTO         FAIR      45  37  73 CALM      30.07S
STURGEON BAY   FAIR      54  36  50 S9        30.09S
GREEN BAY      FAIR      51  38  60 S6        30.08S
MANITOWOC      FAIR      48  36  63 S5        30.11S
APPLETON       FAIR      52  32  46 S8        30.07S
CLINTONVILLE   FAIR      48  36  61 S3        30.07S
OSHKOSH        FAIR      54  36  50 S9        30.08S
$$

WIZ032>034-041-042-053>061-200600-
SOUTHWEST WISCONSIN

CITY           SKY/WX    TMP DP  RH WIND       PRES   REMARKS
LA CROSSE      FAIR      59  40  49 SE7       30.02F
SPARTA         FAIR      62  40  45 S9        30.04S
VIROQUA        FAIR      57  39  50 S10       30.06F
BOSCOBEL       FAIR      46  41  82 CALM      30.08R
PRAIRIE DU CHI FAIR      57  40  53 CALM      30.06S
PLATTEVILLE    FAIR      54  43  66 SE7       30.09S
$$

WIZ056-057-062-063-064-067-068-200600-
SOUTH CENTRAL WISCONSIN

CITY           SKY/WX    TMP DP  RH WIND       PRES   REMARKS
REEDSBURG      FAIR      56  38  50 S7        30.07F
BARABOO/DELLS  FAIR      55  34  43 S9        30.08S
LONE ROCK      FAIR      53  40  61 E5        30.08F
MINERAL POINT  FAIR      54  39  58 SE7       30.09S
MADISON        FAIR      55  37  50 S5        30.10F
MIDDLETON      FAIR      54  36  52 CALM      30.11S
WATERTOWN      FAIR      47  37  69 S3        30.11S
MONROE         FAIR      55  34  44 S10       30.11S
JANESVILLE     FAIR      54  36  50 S6        30.12R
$$

WIZ051-052-058>065-066-070>072-200600-
SOUTHEAST WISCONSIN

CITY           SKY/WX    TMP DP  RH WIND       PRES   REMARKS
MILWAUKEE      FAIR      55  26  32 S7        30.14S
WAUKESHA       FAIR      50  28  43 S3        30.14S
MILWAUKEE/TIMM FAIR      50  27  40 S5        30.14S
RACINE         FAIR      55  25  31 S6        30.15F
BURLINGTON     FAIR      43  38  85 CALM      30.14S
KENOSHA        FAIR      51  31  46 S6        30.14F
FOND DU LAC    FAIR      53  33  46 S7        30.09S
SHEBOYGAN      FAIR      45  36  70 S6        30.11S
WEST BEND      FAIR      52  30  43 S5        30.11F
JUNEAU         FAIR      52  36  54 S8        30.12S
$$

LSZ147-162-200600-
LAKE SUPERIOR

STATION/POSITION TIME  TEMP    WIND        PRES    WAVE
                       AIR SEA DIR/SP/G            HT/PER
                 (UTC) (F)     (DEG/KT/KT) (MB)    (FT/S)
W MID LAKE BUOY  0450   56 52              1012.9F   1/ 2
DEVILS ISLAND    0500   61     210/ 10/ 14 1013.0F
SAXON HARBOR     0440   60     190/  5/ 11 1013.2S
$$

LMZ867-665-643>646-200600-
LAKE MICHIGAN

STATION/POSITION TIME  TEMP    WIND        PRES    WAVE
                       AIR SEA DIR/SP/G            HT/PER
                 (UTC) (F)     (DEG/KT/KT) (MB)    (FT/S)
S GREEN BAY BUOY 0500   58 58  180/ 12/ 16 1018.1
N MID LAKE BUOY  0450   59 58  200/ 16/ 17 1018.8R   4/ 5
NORTHPORT PIER   0440   55     160/  4/  7 1017.9S
KEWAUNEE LAKESHO 0448   54     200/  8/ 11 1018.3R
SHEBOYGAN LAKESH 0500   58     200/ 16/ 21 1019.3F
PORT WASHINGTON  0430   53     210/  4/  7 1021.0S
MILWAUKEE LAKESH 0450   55     210/  4/  5   N/A
S MID LAKE BUOY  0450   62 61  140/ 10/ 12 1021.2S   1/ 3
KENOSHA   LAKESH 0500   58     180/ 10/ 12 1020.7
$$

TC  - TEMPERATURE IN CELSIUS
VSB - VISIBILITY IN STATUTE MILES
WCI - WIND CHILL INDEX
HX  - HEAT INDEX





USA.gov is the U.S. government's official web portal to all federal, state and local government web resources and services.